,,,PA_Meas_PMT16A,,PR_Meas_QMR101_102,,RH_Meas_QMH101,,SR_Meas_QMS101,,TA_Meas_QMH101,,GenWind,,GenWind,
date,time,status,PA,status,PR,status,RH,status,SR,status,TA,status,DirAvg,status,SpdAvg,
2009-03-14, 00:00:05,VALID,1001.65,VALID,0,VALID,93.1577,VALID,0,VALID,23.7616,VALID,105,VALID,0.467578,
2009-03-14, 00:01:05,VALID,1001.66,VALID,0,VALID,93.2034,VALID,0,VALID,23.7616,VALID,96,VALID,0.279297,
2009-03-14, 00:02:05,VALID,1001.65,VALID,0,VALID,93.3179,VALID,0,VALID,23.7616,VALID,96,VALID,0.0574219,
2009-03-14, 00:03:05,VALID,1001.65,VALID,0,VALID,93.2721,VALID,0,VALID,23.7616,VALID,96,VALID,0.564844,
2009-03-14, 00:04:05,VALID,1001.64,VALID,0,VALID,93.3179,VALID,0,VALID,23.7616,VALID,96,VALID,0.188281,
2009-03-14, 00:05:05,VALID,1001.61,VALID,0,VALID,93.2416,VALID,0,VALID,23.7616,VALID,96,VALID,0.279687,
2009-03-14, 00:06:05,VALID,1001.64,VALID,0,VALID,93.3255,VALID,0,VALID,23.7616,VALID,96,VALID,0.362891,
2009-03-14, 00:07:05,VALID,1001.61,VALID,0,VALID,93.3103,VALID,0,VALID,23.7811,VALID,96,VALID,0,
2009-03-14, 00:08:05,VALID,1001.6,VALID,0,VALID,93.295,VALID,0,VALID,23.7402,VALID,96,VALID,0,
2009-03-14, 00:09:05,VALID,1001.57,VALID,0,VALID,93.295,VALID,0,VALID,23.7616,VALID,96,VALID,0.009375,
2009-03-14, 00:10:05,VALID,1001.61,VALID,0,VALID,93.356,VALID,0,VALID,23.7811,VALID,96,VALID,0,
2009-03-14, 00:11:05,VALID,1001.58,VALID,0,VALID,93.3331,VALID,0,VALID,23.7616,VALID,96,VALID,0.0914062,
2009-03-14, 00:12:05,VALID,1001.55,VALID,0,VALID,93.3408,VALID,0,VALID,23.7616,VALID,96,VALID,0.0863281,
2009-03-14, 00:13:05,VALID,1001.56,VALID,0,VALID,93.44,VALID,0,VALID,23.7616,VALID,96,VALID,0.396875,
2009-03-14, 00:14:04,VALID,1001.52,VALID,0,VALID,93.501,VALID,0,VALID,23.7616,VALID,347,VALID,0.457031,
2009-03-14, 00:15:04,VALID,1001.52,VALID,0,VALID,93.5697,VALID,0,VALID,23.7597,VALID,347,VALID,0.495703,
2009-03-14, 00:16:04,VALID,1001.49,VALID,0,VALID,93.5468,VALID,0,VALID,23.7811,VALID,347,VALID,0.603906,
2009-03-14, 00:17:04,VALID,1001.51,VALID,0,VALID,93.4934,VALID,0,VALID,23.7616,VALID,347,VALID,0.253516,
2009-03-14, 00:18:04,VALID,1001.42,VALID,0,VALID,93.5239,VALID,0,VALID,23.7811,VALID,347,VALID,0.00625,
2009-03-14, 00:19:04,VALID,1001.43,VALID,0,VALID,93.501,VALID,0,VALID,23.742,VALID,347,VALID,0.407422,
2009-03-14, 00:20:04,VALID,1001.43,VALID,0,VALID,93.4705,VALID,0,VALID,23.7207,VALID,347,VALID,0.33125,
2009-03-14, 00:21:04,VALID,1001.41,VALID,0,VALID,93.4781,VALID,0,VALID,23.7225,VALID,347,VALID,0,
2009-03-14, 00:22:04,VALID,1001.37,VALID,0,VALID,92.9898,VALID,0,VALID,23.6835,VALID,97,VALID,0.517578,
2009-03-14, 00:23:04,VALID,1001.37,VALID,0,VALID,93.356,VALID,0,VALID,23.7225,VALID,272,VALID,0.855859,
2009-03-14, 00:24:04,VALID,1001.33,VALID,0,VALID,93.2034,VALID,0,VALID,23.7207,VALID,340,VALID,0.391016,
2009-03-14, 00:25:04,VALID,1001.31,VALID,0,VALID,93.1729,VALID,0,VALID,23.742,VALID,340,VALID,0.235156,
2009-03-14, 00:26:04,VALID,1001.31,VALID,0,VALID,93.1577,VALID,0,VALID,23.7225,VALID,340,VALID,0.108984,
2009-03-14, 00:27:04,VALID,1001.31,VALID,0,VALID,93.1958,VALID,0,VALID,23.7225,VALID,340,VALID,0,
2009-03-14, 00:28:04,VALID,1001.3,VALID,0,VALID,93.234,VALID,0,VALID,23.742,VALID,340,VALID,0.249609,
2009-03-14, 00:29:04,VALID,1001.3,VALID,0,VALID,93.3331,VALID,0,VALID,23.7616,VALID,340,VALID,0.279297,
2009-03-14, 00:30:04,VALID,1001.27,VALID,0,VALID,93.1348,VALID,0,VALID,23.742,VALID,340,VALID,0.276563,
2009-03-14, 00:31:04,VALID,1001.24,VALID,0,VALID,93.1043,VALID,0,VALID,23.7616,VALID,340,VALID,0.245703,
2009-03-14, 00:32:04,VALID,1001.22,VALID,0,VALID,93.1043,VALID,0,VALID,23.7616,VALID,340,VALID,0,
2009-03-14, 00:33:04,VALID,1001.22,VALID,0,VALID,93.15,VALID,0,VALID,23.7793,VALID,340,VALID,0,
2009-03-14, 00:34:04,VALID,1001.17,VALID,0,VALID,93.0814,VALID,0,VALID,23.8006,VALID,340,VALID,0,
2009-03-14, 00:35:04,VALID,1001.15,VALID,0,VALID,93.089,VALID,0,VALID,23.7597,VALID,340,VALID,0,
2009-03-14, 00:36:04,VALID,1001.15,VALID,0,VALID,93.0356,VALID,0,VALID,23.7811,VALID,340,VALID,0.0179687,
2009-03-14, 00:37:04,VALID,1001.09,VALID,0,VALID,93.0127,VALID,0,VALID,23.7597,VALID,340,VALID,0,
2009-03-14, 00:38:04,VALID,1001.1,VALID,0,VALID,93.0432,VALID,0,VALID,23.7597,VALID,340,VALID,0.107813,
2009-03-14, 00:39:04,VALID,1001.09,VALID,0,VALID,93.1958,VALID,0,VALID,23.7793,VALID,340,VALID,0.2125,
2009-03-14, 00:40:04,VALID,1001.04,VALID,0,VALID,93.1729,VALID,0,VALID,23.8006,VALID,340,VALID,0.508984,
2009-03-14, 00:41:04,VALID,1001.02,VALID,0,VALID,92.9898,VALID,0,VALID,23.7811,VALID,340,VALID,0.454688,
2009-03-14, 00:42:04,VALID,1001,VALID,0,VALID,92.9364,VALID,0,VALID,23.7811,VALID,340,VALID,0.351563,
2009-03-14, 00:43:04,VALID,1000.97,VALID,0,VALID,92.8525,VALID,0,VALID,23.8006,VALID,340,VALID,0.524609,
2009-03-14, 00:44:04,VALID,1000.93,VALID,0,VALID,92.822,VALID,0,VALID,23.8201,VALID,340,VALID,0.484766,
2009-03-14, 00:45:04,VALID,1000.96,VALID,0,VALID,92.7075,VALID,0,VALID,23.8396,VALID,340,VALID,0.320313,
2009-03-14, 00:46:04,VALID,1000.91,VALID,0,VALID,92.6694,VALID,0,VALID,23.8378,VALID,340,VALID,0.243359,
2009-03-14, 00:47:04,VALID,1000.91,VALID,0,VALID,92.7075,VALID,0,VALID,23.8786,VALID,340,VALID,0.483594,
2009-03-14, 00:48:04,VALID,1000.91,VALID,0,VALID,92.4939,VALID,0,VALID,23.8591,VALID,340,VALID,0.212891,
2009-03-14, 00:49:04,VALID,1000.89,VALID,0,VALID,92.4786,VALID,0,VALID,23.8786,VALID,340,VALID,0.309375,
2009-03-14, 00:50:04,VALID,1000.85,VALID,0,VALID,92.5397,VALID,0,VALID,23.8573,VALID,340,VALID,0.453516,
2009-03-14, 00:51:04,VALID,1000.79,VALID,0,VALID,92.616,VALID,0,VALID,23.8982,VALID,340,VALID,0.339844,
2009-03-14, 00:52:04,VALID,1000.78,VALID,0,VALID,92.5473,VALID,0,VALID,23.8982,VALID,340,VALID,0.713281,
2009-03-14, 00:53:04,VALID,1000.75,VALID,0,VALID,92.6923,VALID,0,VALID,23.8786,VALID,340,VALID,0.558984,
2009-03-14, 00:54:04,VALID,1000.69,VALID,0,VALID,92.738,VALID,0,VALID,23.8786,VALID,340,VALID,0.452344,
2009-03-14, 00:55:04,VALID,1000.74,VALID,0,VALID,92.822,VALID,0,VALID,23.8591,VALID,340,VALID,0.340625,
2009-03-14, 00:56:04,VALID,1000.68,VALID,0,VALID,92.738,VALID,0,VALID,23.8396,VALID,340,VALID,0.503516,
2009-03-14, 00:57:04,VALID,1000.65,VALID,0,VALID,92.8296,VALID,0,VALID,23.8006,VALID,340,VALID,0.398047,
2009-03-14, 00:58:04,VALID,1000.62,VALID,0,VALID,92.9211,VALID,0,VALID,23.7597,VALID,340,VALID,0.436328,
2009-03-14, 00:59:04,VALID,1000.61,VALID,0,VALID,92.9974,VALID,0,VALID,23.7811,VALID,340,VALID,0.291016,
2009-03-14, 01:00:04,VALID,1000.58,VALID,0,VALID,93.0585,VALID,0,VALID,23.7616,VALID,340,VALID,0.234375,
2009-03-14, 01:01:04,VALID,1000.55,VALID,0,VALID,93.0661,VALID,0,VALID,23.7402,VALID,340,VALID,0.240234,
2009-03-14, 01:02:04,VALID,1000.52,VALID,0,VALID,93.1653,VALID,0,VALID,23.7616,VALID,340,VALID,0.46875,
2009-03-14, 01:03:04,VALID,1000.49,VALID,0,VALID,93.15,VALID,0,VALID,23.742,VALID,340,VALID,0.321875,
2009-03-14, 01:04:04,VALID,1000.47,VALID,0,VALID,93.2263,VALID,0,VALID,23.7616,VALID,340,VALID,0.296875,
2009-03-14, 01:05:04,VALID,1000.44,VALID,0,VALID,93.2111,VALID,0,VALID,23.7616,VALID,340,VALID,0.144922,
2009-03-14, 01:06:04,VALID,1000.44,VALID,0,VALID,93.295,VALID,0,VALID,23.7597,VALID,340,VALID,0.198047,
2009-03-14, 01:07:04,VALID,1000.39,VALID,0,VALID,93.2874,VALID,0,VALID,23.7793,VALID,340,VALID,0.0105469,
2009-03-14, 01:08:04,VALID,1000.41,VALID,0,VALID,93.3026,VALID,0.112286,VALID,23.7793,VALID,340,VALID,0,
2009-03-14, 01:09:04,VALID,1000.41,VALID,0,VALID,93.3408,VALID,0,VALID,23.7793,VALID,340,VALID,0,
2009-03-14, 01:10:04,VALID,1000.35,VALID,0,VALID,93.4171,VALID,0,VALID,23.7793,VALID,340,VALID,0.136719,
2009-03-14, 01:11:04,VALID,1000.36,VALID,0,VALID,93.4934,VALID,0,VALID,23.7988,VALID,340,VALID,0.269531,
2009-03-14, 01:12:04,VALID,1000.32,VALID,0,VALID,93.5315,VALID,0.112286,VALID,23.797,VALID,340,VALID,0.416797,
2009-03-14, 01:13:04,VALID,1000.33,VALID,0,VALID,93.5315,VALID,0,VALID,23.8183,VALID,340,VALID,0.487891,
2009-03-14, 01:14:04,VALID,1000.29,VALID,0,VALID,93.5926,VALID,0.112286,VALID,23.7988,VALID,340,VALID,0.491797,
2009-03-14, 01:15:04,VALID,1000.28,VALID,0,VALID,93.5697,VALID,0.112286,VALID,23.8183,VALID,340,VALID,0.367188,
2009-03-14, 01:16:04,VALID,1000.24,VALID,0,VALID,93.6078,VALID,0.112286,VALID,23.7775,VALID,340,VALID,0.316797,
2009-03-14, 01:17:04,VALID,1000.26,VALID,0,VALID,93.6154,VALID,0,VALID,23.7775,VALID,340,VALID,0.364453,
2009-03-14, 01:18:04,VALID,1000.24,VALID,0,VALID,93.5697,VALID,0.112286,VALID,23.7988,VALID,340,VALID,0.297266,
2009-03-14, 01:19:04,VALID,1000.25,VALID,0,VALID,93.6154,VALID,0.112286,VALID,23.7775,VALID,340,VALID,0.360938,
2009-03-14, 01:20:04,VALID,1000.25,VALID,0,VALID,93.6841,VALID,0.112286,VALID,23.7579,VALID,340,VALID,0.249219,
2009-03-14, 01:21:04,VALID,1000.21,VALID,0,VALID,93.707,VALID,0,VALID,23.7793,VALID,340,VALID,0.158984,
2009-03-14, 01:22:04,VALID,1000.21,VALID,0,VALID,93.7223,VALID,0,VALID,23.7988,VALID,340,VALID,0.182812,
2009-03-14, 01:23:04,VALID,1000.22,VALID,0,VALID,93.7451,VALID,0,VALID,23.8006,VALID,340,VALID,0.0214844,
2009-03-14, 01:24:04,VALID,1000.24,VALID,0,VALID,93.768,VALID,0,VALID,23.8201,VALID,340,VALID,0,
2009-03-14, 01:25:04,VALID,1000.2,VALID,0,VALID,93.6765,VALID,0,VALID,23.8006,VALID,340,VALID,0,
2009-03-14, 01:26:04,VALID,1000.18,VALID,0,VALID,93.6917,VALID,0,VALID,23.8006,VALID,340,VALID,0,
2009-03-14, 01:27:04,VALID,1000.21,VALID,0,VALID,93.6917,VALID,0,VALID,23.7793,VALID,340,VALID,0.139453,
2009-03-14, 01:28:04,VALID,1000.22,VALID,0,VALID,93.707,VALID,0,VALID,23.7811,VALID,340,VALID,0.520703,
2009-03-14, 01:29:04,VALID,1000.23,VALID,0,VALID,93.7375,VALID,0,VALID,23.7811,VALID,340,VALID,0.608594,
2009-03-14, 01:30:04,VALID,1000.22,VALID,0,VALID,93.7757,VALID,0,VALID,23.7811,VALID,340,VALID,0.542969,
2009-03-14, 01:31:04,VALID,1000.2,VALID,0,VALID,93.7604,VALID,0.112286,VALID,23.7793,VALID,340,VALID,0.371875,
2009-03-14, 01:32:04,VALID,1000.2,VALID,0,VALID,93.7375,VALID,0,VALID,23.7597,VALID,340,VALID,0,
2009-03-14, 01:33:04,VALID,1000.17,VALID,0,VALID,93.768,VALID,0,VALID,23.7811,VALID,340,VALID,0.594141,
2009-03-14, 01:34:04,VALID,1000.14,VALID,0,VALID,93.6688,VALID,0,VALID,23.7616,VALID,197,VALID,0.419531,
2009-03-14, 01:35:04,VALID,1000.14,VALID,0,VALID,93.4628,VALID,0,VALID,23.7597,VALID,208,VALID,1.12227,
2009-03-14, 01:36:04,VALID,1000.12,VALID,0,VALID,93.4171,VALID,0,VALID,23.8201,VALID,322,VALID,1.04102,
2009-03-14, 01:37:04,VALID,1000.11,VALID,0,VALID,93.2721,VALID,0,VALID,23.8396,VALID,337,VALID,0.481641,
2009-03-14, 01:38:04,VALID,1000.12,VALID,0,VALID,93.2263,VALID,0,VALID,23.8396,VALID,337,VALID,0.341016,
2009-03-14, 01:39:04,VALID,1000.1,VALID,0,VALID,93.1653,VALID,0,VALID,23.8396,VALID,337,VALID,0.352734,
2009-03-14, 01:40:04,VALID,1000.06,VALID,0,VALID,93.089,VALID,0,VALID,23.7988,VALID,337,VALID,0.141797,
2009-03-14, 01:41:04,VALID,1000.07,VALID,0,VALID,93.0432,VALID,0,VALID,23.8201,VALID,337,VALID,0.406641,
2009-03-14, 01:42:04,VALID,1000.03,VALID,0,VALID,93.0508,VALID,0,VALID,23.8396,VALID,240,VALID,0.634375,
2009-03-14, 01:43:04,VALID,1000.02,VALID,0,VALID,93.0508,VALID,0,VALID,23.8183,VALID,232,VALID,0.369922,
2009-03-14, 01:44:04,VALID,1000.01,VALID,0,VALID,92.883,VALID,0,VALID,23.8396,VALID,226,VALID,0.482812,
2009-03-14, 01:45:04,VALID,1000.01,VALID,0,VALID,92.8601,VALID,0,VALID,23.8396,VALID,227,VALID,0.475,
2009-03-14, 01:46:04,VALID,999.966,VALID,0,VALID,92.8601,VALID,0,VALID,23.8396,VALID,227,VALID,0.00585938,
2009-03-14, 01:47:04,VALID,999.927,VALID,0,VALID,92.883,VALID,0,VALID,23.8396,VALID,227,VALID,0,
2009-03-14, 01:48:04,VALID,999.924,VALID,0,VALID,92.9059,VALID,0,VALID,23.8201,VALID,227,VALID,0.331641,
2009-03-14, 01:49:04,VALID,999.895,VALID,0,VALID,92.8296,VALID,0,VALID,23.8201,VALID,230,VALID,0.828125,
2009-03-14, 01:50:04,VALID,999.893,VALID,0,VALID,92.7838,VALID,0,VALID,23.8201,VALID,236,VALID,0.319141,
2009-03-14, 01:51:04,VALID,999.903,VALID,0,VALID,92.7914,VALID,0,VALID,23.8396,VALID,236,VALID,0.219141,
2009-03-14, 01:52:04,VALID,999.897,VALID,0,VALID,92.7533,VALID,0,VALID,23.8183,VALID,236,VALID,0,
2009-03-14, 01:53:04,VALID,999.884,VALID,0,VALID,92.738,VALID,0,VALID,23.8201,VALID,236,VALID,0,
2009-03-14, 01:54:04,VALID,999.871,VALID,0,VALID,92.7533,VALID,0,VALID,23.8006,VALID,237,VALID,0.272266,
2009-03-14, 01:55:04,VALID,999.854,VALID,0,VALID,92.7457,VALID,0,VALID,23.8006,VALID,237,VALID,0.0875,
2009-03-14, 01:56:04,VALID,999.856,VALID,0,VALID,92.7762,VALID,0,VALID,23.7811,VALID,237,VALID,0.236328,
2009-03-14, 01:57:04,VALID,999.865,VALID,0,VALID,92.7685,VALID,0,VALID,23.8006,VALID,237,VALID,0,
2009-03-14, 01:58:04,VALID,999.918,VALID,0,VALID,92.7533,VALID,0,VALID,23.7811,VALID,237,VALID,0,
2009-03-14, 01:59:04,VALID,999.884,VALID,0,VALID,92.7685,VALID,0,VALID,23.7811,VALID,237,VALID,0.00195313,
2009-03-14, 02:00:04,VALID,999.85,VALID,0,VALID,92.7762,VALID,0,VALID,23.7597,VALID,217,VALID,0.100781,
2009-03-14, 02:01:04,VALID,999.849,VALID,0,VALID,92.8143,VALID,0,VALID,23.7811,VALID,218,VALID,0.390234,
2009-03-14, 02:02:04,VALID,999.825,VALID,0,VALID,92.8143,VALID,0,VALID,23.7811,VALID,218,VALID,0.302734,
2009-03-14, 02:03:04,VALID,999.813,VALID,0,VALID,92.8143,VALID,0,VALID,23.8006,VALID,218,VALID,0.366406,
2009-03-14, 02:04:04,VALID,999.811,VALID,0,VALID,92.8296,VALID,0,VALID,23.8006,VALID,218,VALID,0.271484,
2009-03-14, 02:05:04,VALID,999.788,VALID,0,VALID,92.8372,VALID,0,VALID,23.7811,VALID,218,VALID,0.134375,
2009-03-14, 02:06:04,VALID,999.782,VALID,0,VALID,92.8754,VALID,0,VALID,23.7597,VALID,209,VALID,0.00117188,
2009-03-14, 02:07:04,VALID,999.785,VALID,0,VALID,92.8372,VALID,0,VALID,23.7811,VALID,176,VALID,0.225391,
2009-03-14, 02:08:04,VALID,999.735,VALID,0,VALID,92.8525,VALID,0,VALID,23.7811,VALID,176,VALID,0.276172,
2009-03-14, 02:09:04,VALID,999.759,VALID,0,VALID,92.8296,VALID,0,VALID,23.7811,VALID,176,VALID,0.040625,
2009-03-14, 02:10:04,VALID,999.735,VALID,0,VALID,92.7991,VALID,0,VALID,23.7616,VALID,176,VALID,0,
2009-03-14, 02:11:04,VALID,999.748,VALID,0,VALID,92.822,VALID,0,VALID,23.7616,VALID,176,VALID,0.0015625,
2009-03-14, 02:12:04,VALID,999.717,VALID,0,VALID,92.8372,VALID,0,VALID,23.7616,VALID,169,VALID,0.330469,
2009-03-14, 02:13:04,VALID,999.725,VALID,0,VALID,92.822,VALID,0,VALID,23.7616,VALID,81,VALID,0.389844,
2009-03-14, 02:14:04,VALID,999.709,VALID,0,VALID,92.7533,VALID,0,VALID,23.7616,VALID,81,VALID,0.245703,
2009-03-14, 02:15:04,VALID,999.721,VALID,0,VALID,92.738,VALID,0,VALID,23.7207,VALID,81,VALID,0.00585938,
2009-03-14, 02:16:04,VALID,999.705,VALID,0,VALID,92.738,VALID,0,VALID,23.7616,VALID,336,VALID,0.492188,
2009-03-14, 02:17:04,VALID,999.668,VALID,0,VALID,92.6694,VALID,0,VALID,23.7402,VALID,266,VALID,0.692187,
2009-03-14, 02:18:04,VALID,999.649,VALID,0,VALID,92.5778,VALID,0,VALID,23.7811,VALID,310,VALID,0.583203,
2009-03-14, 02:19:04,VALID,999.642,VALID,0,VALID,92.4863,VALID,0,VALID,23.8006,VALID,278,VALID,0.333594,
2009-03-14, 02:20:04,VALID,999.609,VALID,0,VALID,92.3642,VALID,0,VALID,23.7793,VALID,283,VALID,0.345313,
2009-03-14, 02:21:04,VALID,999.643,VALID,0,VALID,92.3108,VALID,0,VALID,23.8201,VALID,288,VALID,0.648828,
2009-03-14, 02:22:04,VALID,999.632,VALID,0,VALID,92.0666,VALID,0,VALID,23.8201,VALID,279,VALID,1.11328,
2009-03-14, 02:23:04,VALID,999.651,VALID,0,VALID,92.12,VALID,0,VALID,23.8573,VALID,285,VALID,0.402344,
2009-03-14, 02:24:04,VALID,999.612,VALID,0,VALID,92.0514,VALID,0,VALID,23.8591,VALID,285,VALID,0.119922,
2009-03-14, 02:25:04,VALID,999.597,VALID,0,VALID,91.9064,VALID,0,VALID,23.8591,VALID,278,VALID,0.616406,
2009-03-14, 02:26:04,VALID,999.604,VALID,0,VALID,91.8377,VALID,0,VALID,23.8591,VALID,292,VALID,0.246484,
2009-03-14, 02:27:04,VALID,999.589,VALID,0,VALID,91.8377,VALID,0,VALID,23.8378,VALID,292,VALID,0.260938,
2009-03-14, 02:28:04,VALID,999.581,VALID,0,VALID,91.8454,VALID,0,VALID,23.8591,VALID,292,VALID,0,
2009-03-14, 02:29:04,VALID,999.565,VALID,0,VALID,91.9445,VALID,0,VALID,23.8591,VALID,292,VALID,0.00195313,
2009-03-14, 02:30:04,VALID,999.538,VALID,0,VALID,92.059,VALID,0,VALID,23.8591,VALID,292,VALID,0.292188,
2009-03-14, 02:31:04,VALID,999.561,VALID,0,VALID,91.9751,VALID,0,VALID,23.8396,VALID,292,VALID,0.112891,
2009-03-14, 02:32:04,VALID,999.598,VALID,0,VALID,92.0056,VALID,0,VALID,23.8396,VALID,292,VALID,0.0640625,
2009-03-14, 02:33:04,VALID,999.592,VALID,0,VALID,92.0666,VALID,0,VALID,23.8183,VALID,292,VALID,0.0425781,
2009-03-14, 02:34:04,VALID,999.603,VALID,0,VALID,92.12,VALID,0,VALID,23.8183,VALID,292,VALID,0.112891,
2009-03-14, 02:35:04,VALID,999.608,VALID,0,VALID,91.9674,VALID,0,VALID,23.8183,VALID,292,VALID,0.0507813,
2009-03-14, 02:36:04,VALID,999.576,VALID,0,VALID,91.9674,VALID,0,VALID,23.8183,VALID,196,VALID,0.261328,
2009-03-14, 02:37:04,VALID,999.598,VALID,0,VALID,91.9217,VALID,0,VALID,23.8396,VALID,196,VALID,0.00351562,
2009-03-14, 02:38:04,VALID,999.577,VALID,0,VALID,91.8911,VALID,0,VALID,23.8396,VALID,196,VALID,0.0960938,
2009-03-14, 02:39:04,VALID,999.61,VALID,0,VALID,91.9064,VALID,0,VALID,23.8396,VALID,196,VALID,0.173828,
2009-03-14, 02:40:04,VALID,999.617,VALID,0,VALID,91.8377,VALID,0,VALID,23.8786,VALID,219,VALID,0.376172,
2009-03-14, 02:41:04,VALID,999.609,VALID,0,VALID,91.8606,VALID,0,VALID,23.8786,VALID,247,VALID,1.16133,
2009-03-14, 02:42:04,VALID,999.644,VALID,0,VALID,91.7385,VALID,0,VALID,23.8768,VALID,265,VALID,0.471484,
2009-03-14, 02:43:04,VALID,999.646,VALID,0,VALID,91.6012,VALID,0,VALID,23.8963,VALID,263,VALID,0.248047,
2009-03-14, 02:44:04,VALID,999.648,VALID,0,VALID,91.5631,VALID,0,VALID,23.9372,VALID,228,VALID,0.257031,
2009-03-14, 02:45:04,VALID,999.648,VALID,0,VALID,91.5173,VALID,0,VALID,23.9567,VALID,229,VALID,0.412891,
2009-03-14, 02:46:04,VALID,999.649,VALID,0,VALID,91.3113,VALID,0,VALID,23.9762,VALID,228,VALID,0.672656,
2009-03-14, 02:47:04,VALID,999.692,VALID,0,VALID,91.2808,VALID,0,VALID,23.9744,VALID,233,VALID,0.936328,
2009-03-14, 02:48:04,VALID,999.701,VALID,0,VALID,91.1358,VALID,0,VALID,23.9939,VALID,260,VALID,0.8125,
2009-03-14, 02:49:04,VALID,999.658,VALID,0,VALID,90.7238,VALID,0,VALID,24.0348,VALID,269,VALID,1.66367,
2009-03-14, 02:50:04,VALID,999.729,VALID,0,VALID,90.6933,VALID,0,VALID,24.0329,VALID,235,VALID,1.33672,
2009-03-14, 02:51:04,VALID,999.792,VALID,0,VALID,90.762,VALID,0,VALID,24.0738,VALID,252,VALID,1.54453,
2009-03-14, 02:52:04,VALID,999.639,VALID,0.5,VALID,90.6017,VALID,0,VALID,24.0738,VALID,200,VALID,1.13555,
2009-03-14, 02:53:04,VALID,999.667,VALID,0,VALID,90.5788,VALID,0,VALID,24.0348,VALID,232,VALID,2.28789,
2009-03-14, 02:54:04,VALID,999.441,VALID,0,VALID,90.8611,VALID,0,VALID,23.9957,VALID,230,VALID,2.26484,
2009-03-14, 02:55:04,VALID,999.589,VALID,0.5,VALID,91.0671,VALID,0,VALID,23.9567,VALID,189,VALID,5.42539,
2009-03-14, 02:56:04,VALID,999.732,VALID,0.5,VALID,91.235,VALID,0,VALID,23.8573,VALID,237,VALID,6.41719,
2009-03-14, 02:57:04,VALID,999.83,VALID,0.5,VALID,92.0361,VALID,0,VALID,23.7225,VALID,292,VALID,2.7957,
2009-03-14, 02:58:04,VALID,999.929,VALID,0.5,VALID,92.5626,VALID,0,VALID,23.5859,VALID,260,VALID,4.54805,
2009-03-14, 02:59:04,VALID,999.996,VALID,1,VALID,92.9669,VALID,0,VALID,23.4688,VALID,289,VALID,5.31797,
2009-03-14, 03:00:04,VALID,999.995,VALID,0,VALID,93.4857,VALID,0,VALID,23.4316,VALID,282,VALID,2.22344,
2009-03-14, 03:01:04,VALID,999.935,VALID,0.5,VALID,93.8596,VALID,0,VALID,23.3305,VALID,307,VALID,2.75156,
2009-03-14, 03:02:04,VALID,999.925,VALID,0,VALID,94.0808,VALID,0,VALID,23.3518,VALID,307,VALID,1.61953,
2009-03-14, 03:03:04,VALID,999.912,VALID,0.5,VALID,94.3021,VALID,0,VALID,23.3305,VALID,320,VALID,1.80625,
2009-03-14, 03:04:04,VALID,999.917,VALID,0,VALID,94.4013,VALID,0,VALID,23.3518,VALID,301,VALID,1.54102,
2009-03-14, 03:05:04,VALID,999.933,VALID,0.5,VALID,94.4852,VALID,0,VALID,23.3518,VALID,284,VALID,0.639453,
2009-03-14, 03:06:04,VALID,999.937,VALID,0,VALID,94.5462,VALID,0,VALID,23.3305,VALID,268,VALID,0.852344,
2009-03-14, 03:07:04,VALID,999.964,VALID,0.5,VALID,94.6149,VALID,0,VALID,23.311,VALID,260,VALID,1.00742,
2009-03-14, 03:08:04,VALID,1000,VALID,0,VALID,94.6531,VALID,0,VALID,23.3323,VALID,253,VALID,1.16367,
2009-03-14, 03:09:04,VALID,999.956,VALID,0.5,VALID,94.7141,VALID,0,VALID,23.3305,VALID,287,VALID,1.54961,
2009-03-14, 03:10:04,VALID,999.935,VALID,0.5,VALID,94.7523,VALID,0,VALID,23.3323,VALID,358,VALID,0.469531,
2009-03-14, 03:11:04,VALID,1000,VALID,0,VALID,94.7675,VALID,0,VALID,23.3127,VALID,263,VALID,0.972266,
2009-03-14, 03:12:04,VALID,1000.01,VALID,0.5,VALID,94.798,VALID,0,VALID,23.3127,VALID,272,VALID,2.07227,
2009-03-14, 03:13:04,VALID,999.973,VALID,0.5,VALID,94.7904,VALID,0,VALID,23.2915,VALID,356,VALID,1.90703,
2009-03-14, 03:14:04,VALID,1000.05,VALID,0.5,VALID,94.8285,VALID,0,VALID,23.2932,VALID,287,VALID,1.90469,
2009-03-14, 03:15:04,VALID,1000.03,VALID,0.5,VALID,94.8209,VALID,0,VALID,23.2737,VALID,330,VALID,1.54141,
2009-03-14, 03:16:04,VALID,1000.02,VALID,0.5,VALID,94.8133,VALID,0,VALID,23.2737,VALID,295,VALID,1.28398,
2009-03-14, 03:17:04,VALID,1000.05,VALID,0.5,VALID,94.8667,VALID,0,VALID,23.2737,VALID,295,VALID,0.773047,
2009-03-14, 03:18:04,VALID,1000.02,VALID,0.5,VALID,94.9201,VALID,0,VALID,23.2737,VALID,341,VALID,1.92578,
2009-03-14, 03:19:04,VALID,999.988,VALID,0.5,VALID,94.9583,VALID,0,VALID,23.2932,VALID,239,VALID,3.50195,
2009-03-14, 03:20:04,VALID,1000.06,VALID,0.5,VALID,94.9735,VALID,0,VALID,23.2915,VALID,307,VALID,2.44219,
2009-03-14, 03:21:04,VALID,1000.04,VALID,1,VALID,95.0117,VALID,0,VALID,23.3323,VALID,333,VALID,2.51172,
2009-03-14, 03:22:04,VALID,1000,VALID,0.5,VALID,94.9888,VALID,0,VALID,23.3323,VALID,296,VALID,2.38086,
2009-03-14, 03:23:04,VALID,999.946,VALID,0.5,VALID,95.0117,VALID,0,VALID,23.3127,VALID,330,VALID,2.09609,
2009-03-14, 03:24:04,VALID,999.977,VALID,0.5,VALID,95.0651,VALID,0,VALID,23.3518,VALID,349,VALID,1.28711,
2009-03-14, 03:25:04,VALID,999.988,VALID,1,VALID,95.0193,VALID,0,VALID,23.3127,VALID,321,VALID,1.69297,
2009-03-14, 03:26:04,VALID,999.93,VALID,0,VALID,94.9277,VALID,0,VALID,23.2542,VALID,349,VALID,1.87812,
2009-03-14, 03:27:04,VALID,999.928,VALID,0.5,VALID,94.8972,VALID,0,VALID,23.1957,VALID,14,VALID,2.20508,
2009-03-14, 03:28:04,VALID,999.987,VALID,0.5,VALID,95.004,VALID,0,VALID,23.1744,VALID,327,VALID,1.23906,
2009-03-14, 03:29:04,VALID,999.982,VALID,1,VALID,95.0498,VALID,0,VALID,23.1744,VALID,280,VALID,1.72852,
2009-03-14, 03:30:04,VALID,1000.02,VALID,0.5,VALID,95.1108,VALID,0,VALID,23.2152,VALID,308,VALID,2.56953,
2009-03-14, 03:31:04,VALID,1000.04,VALID,0,VALID,95.1414,VALID,0,VALID,23.2347,VALID,321,VALID,1.15391,
2009-03-14, 03:32:04,VALID,1000.03,VALID,0.5,VALID,95.1795,VALID,0,VALID,23.2134,VALID,315,VALID,2.0418,
2009-03-14, 03:33:04,VALID,1000.01,VALID,0.5,VALID,95.2177,VALID,0,VALID,23.2542,VALID,302,VALID,0.920703,
2009-03-14, 03:34:04,VALID,1000.02,VALID,0,VALID,95.2024,VALID,0,VALID,23.2737,VALID,323,VALID,1.68828,
2009-03-14, 03:35:04,VALID,1000.01,VALID,0,VALID,95.2329,VALID,0,VALID,23.2524,VALID,320,VALID,1.2707,
2009-03-14, 03:36:04,VALID,999.994,VALID,0.5,VALID,95.2253,VALID,0,VALID,23.2524,VALID,331,VALID,1.1582,
2009-03-14, 03:37:04,VALID,999.988,VALID,0,VALID,95.2253,VALID,0,VALID,23.2542,VALID,319,VALID,0.61875,
2009-03-14, 03:38:04,VALID,999.996,VALID,0,VALID,95.1948,VALID,0,VALID,23.2347,VALID,355,VALID,2.12266,
2009-03-14, 03:39:04,VALID,999.969,VALID,0.5,VALID,95.1566,VALID,0,VALID,23.2152,VALID,358,VALID,2.19375,
2009-03-14, 03:40:04,VALID,999.989,VALID,0,VALID,95.21,VALID,0,VALID,23.1744,VALID,329,VALID,1.98516,
2009-03-14, 03:41:04,VALID,999.991,VALID,0,VALID,95.2177,VALID,0,VALID,23.1744,VALID,335,VALID,3.56289,
2009-03-14, 03:42:04,VALID,999.984,VALID,0,VALID,95.2253,VALID,0,VALID,23.2152,VALID,331,VALID,1.79883,
2009-03-14, 03:43:04,VALID,1000.01,VALID,0,VALID,95.2482,VALID,0,VALID,23.2134,VALID,342,VALID,1.86641,
2009-03-14, 03:44:04,VALID,1000.04,VALID,0.5,VALID,95.2405,VALID,0,VALID,23.2152,VALID,349,VALID,1.58945,
2009-03-14, 03:45:04,VALID,1000.05,VALID,0,VALID,95.2558,VALID,0,VALID,23.2347,VALID,333,VALID,1.53984,